sat.trackr.live / text

‹ back to catalog

KOREASAT 5 (MUGUNGWHA 5)

NORAD 29349 · 2006-034A

PAYLOAD ACTIVE UNKNOWN

§ Identity

Operator
Country
SKOR
Launch date
2006-08-22
Launch site
SEAL
Launch vehicle
Mass (kg)
RCS (m²)
25.12

Purposes: comms

External: N2YO · Heavens-Above · Gunter

§ Orbital elements

Epoch: 2026-09-19T20:55:51.038400Z

Period
1,436.08 min
Inclination
2.0212°
Eccentricity
0.0001839
Mean motion
1.00272696 rev/d
Perigee alt
35,778.6 km
Apogee alt
35,794.1 km
Semi-major
42,164.5 km
B*
0.0000e+0
RAAN
81.6539°
Arg perigee
144.2328°
Mean anomaly
199.9340°
Rev number
4,226

§ Raw data

KOREASAT 5 (MUGUNGWHA 5)1 29349U 06034A   26262.87211850 -.00000362  00000+0  00000+0 0  99902 29349   2.0212  81.6539 0001839 144.2328 199.9340  1.00272696 42265

JSON: /api/v1/satellites/29349 · /tle

For live sub-satellite position, see the globe view (requires WebGL).

§ Visibility from observer

Set your observer location to see the next 7 days of passes ≥ 10°. The values pass through the URL so the page stays shareable.

No JS? Fill the form by hand. The geolocation button needs JavaScript.